EHI
17 18 20 22 26 31 33 35 36 37 35 31 26 22 18 13 9 8 8 8 7 7 6 5 5 4 2 2 3 4 4 5 5 5 4 2 2 2 3 4 5 4 3
20 20 20 21 24 29 31 31 31 32 32 29 25 20 16 11 7 7 7 7 7 7 5 4 3 3 3 2 3 4 4 4 4 4 3 2 1 2 2 3 4 3 3
20 20 19 19 22 26 26 26 26 27 27 26 21 17 12 8 5 4 5 5 6 6 4 3 2 3 3 3 4 4 4 5 6 5 3 3 1 1 2 3 3 2 2
16 16 16 18 21 22 21 22 24 25 26 24 19 14 10 7 4 3 2 4 4 3 1 1 2 2 2 4 4 4 5 7 7 5 3 2 2 1 1 2 1 1 1
12 12 13 16 18 17 16 18 22 25 25 24 20 15 10 7 6 4 4 4 4 2 1 0 0 0 1 2 3 4 4 5 6 5 3 1 2 2 2 1 1 0 0
12 12 14 14 14 14 14 17 21 23 25 24 21 17 12 9 8 8 8 7 5 3 2 1 1 1 1 2 3 3 3 4 5 5 3 1 2 2 2 3 2 1 0
14 15 16 15 14 14 15 17 19 21 22 22 20 17 15 11 10 9 9 8 6 4 4 4 4 3 3 3 4 4 3 3 4 4 3 2 2 2 2 2 2 1 0
14 16 17 15 14 15 16 17 17 17 19 19 18 17 15 13 10 10 10 9 7 5 6 7 6 5 3 3 4 4 3 2 3 3 3 3 3 3 2 1 1 0 0
12 14 15 15 14 14 13 13 12 12 15 15 15 15 15 13 10 9 10 10 9 7 7 8 8 6 4 4 4 3 2 2 3 3 3 3 3 3 2 2 2 1 1
10 11 12 13 13 12 10 9 8 9 10 11 12 13 13 12 10 9 10 12 12 10 8 7 7 6 6 5 4 3 3 3 3 3 3 3 3 3 3 2 3 3 2
8 10 11 11 11 9 8 8 8 7 8 9 9 10 10 10 9 8 10 12 13 12 10 8 7 6 6 6 4 3 3 3 3 3 3 3 3 4 3 3 3 2 1
8 10 11 10 7 6 6 7 6 6 6 7 8 9 10 11 10 8 8 10 11 11 10 9 7 6 6 6 5 4 3 3 3 3 3 3 3 3 3 3 3 2 1
9 10 10 9 6 4 5 5 5 4 4 5 6 8 10 11 10 8 7 6 7 8 10 9 7 6 6 6 5 4 3 3 3 3 3 3 3 3 3 3 3 2 1
8 8 9 9 8 5 5 6 6 5 5 5 7 9 10 10 9 8 6 5 4 5 6 7 6 5 4 4 4 3 3 3 3 3 3 3 3 2 1 1 2 2 1
5 6 7 9 9 7 6 7 8 9 8 8 9 9 9 8 8 8 7 6 4 3 3 3 4 4 4 3 3 3 3 3 3 3 3 3 2 1 0 0 1 2 2
5 5 6 8 10 9 8 8 9 11 11 10 10 10 9 8 8 8 7 6 5 4 3 2 3 3 3 2 3 3 3 3 3 3 2 1 0 0 0 0 0 1 2
8 7 6 9 11 10 8 8 10 11 11 10 10 9 8 7 7 6 6 6 5 5 5 4 3 2 1 1 1 2 2 2 2 1 1 0 0 0 0 0 0 0 1
10 8 7 9 12 11 9 9 10 10 10 9 9 8 7 7 6 5 5 6 6 6 6 6 4 2 1 0 0 1 1 1 1 0 0 1 1 1 0 0 0 0 0
11 11 9 8 11 13 11 11 10 10 10 9 8 7 6 6 5 5 5 5 6 6 6 5 4 3 2 1 0 0 0 0 0 1 0 1 1 1 0 0 0 0 0
12 14 12 12 13 14 13 11 10 10 10 9 8 7 6 5 4 4 4 4 4 5 4 3 3 3 2 1 0 0 0 0 1 2 2 1 1 0 0 0 0 0 0
13 15 17 16 15 13 11 10 9 10 10 9 9 7 6 4 3 3 3 2 2 3 3 2 3 3 2 0 0 0 0 1 2 3 4 2 1 0 0 0 0 0 0
13 15 18 18 14 11 9 9 9 9 9 9 9 8 6 4 3 3 2 1 1 2 2 2 2 2 1 0 0 0 0 0 1 3 3 2 1 0 0 0 0 0 0
14 15 16 16 11 8 8 7 7 8 8 8 8 6 4 3 3 1 1 0 0 1 1 1 1 1 1 0 0 0 0 0 1 1 1 1 0 0 0 0 0 0 0
14 14 14 11 8 6 6 5 4 4 6 6 6 4 3 3 2 1 0 0 0 0 0 0 0 0 0 0 0 0 0 0 1 1 0 0 0 0 0 0 0 0 0
13 13 11 8 6 5 4 2 1 1 3 4 3 3 2 1 1 1 1 0 0 0 0 0 0 0 0 0 0 0 0 1 1 0 0 0 0 0 0 0 0 0 0
13 12 9 7 5 4 3 1 0 0 1 2 1 1 1 0 1 2 2 1 0 0 0 0 0 0 0 0 0 0 0 1 0 0 0 0 0 0 0 0 0 0 0
Wind_Speed
3 3 3 4 4 4 4 4 5 5 4 4 3 3 2 2 2 2 2 3 3 3 3 3 4 4 3 4 4 3 4 2 2 2 2 3 3 2 2 2 2 3 3
4 3 4 4 4 5 4 4 5 5 5 4 3 2 2 2 2 1 2 2 3 3 4 3 4 4 3 4 4 3 3 2 2 2 2 3 4 3 2 2 2 2 3
4 4 4 5 5 5 5 4 4 5 5 5 3 3 2 2 2 2 2 2 2 3 3 4 3 3 4 4 4 4 4 3 2 1 2 2 1 2 3 2 2 2 2
4 4 4 5 5 5 5 5 5 5 5 5 4 4 3 3 3 2 2 2 2 2 3 4 3 3 3 4 4 4 3 3 2 2 1 2 1 1 2 3 2 2 2
4 4 4 4 4 5 5 5 5 5 5 5 5 4 3 3 3 3 2 2 2 2 3 3 4 3 3 4 3 4 4 3 2 1 1 1 1 2 2 1 2 2 1
4 4 3 3 4 4 5 5 5 5 5 5 5 4 3 3 3 3 3 3 2 2 3 3 4 4 3 4 4 4 5 3 2 1 1 1 1 1 1 1 2 1 1
4 4 4 4 4 5 5 5 5 5 5 5 5 4 4 4 4 3 3 3 2 3 3 3 3 3 3 3 3 3 3 3 3 2 1 1 1 1 1 1 1 1 1
4 4 4 4 4 5 5 4 5 5 5 5 5 4 4 3 3 3 3 3 2 2 3 3 3 3 3 3 3 3 3 3 3 2 1 1 1 1 1 2 2 2 2
5 4 4 4 4 4 4 4 5 5 5 5 5 5 4 3 2 3 3 3 2 3 4 4 3 3 3 2 3 2 3 2 2 2 3 2 1 1 1 2 2 3 3
5 4 4 4 4 4 4 4 4 4 5 5 4 4 4 3 3 3 3 2 3 3 3 4 4 4 3 3 3 3 3 2 2 2 2 1 1 1 2 2 2 2 3
6 5 5 5 5 5 5 5 5 5 5 5 5 4 4 4 3 3 3 3 3 3 3 4 4 4 4 3 3 3 3 3 3 3 3 3 2 2 2 2 2 2 2
6 6 5 5 5 5 5 5 5 5 5 5 5 5 4 4 3 3 3 3 3 3 3 4 4 4 3 3 3 3 3 3 3 2 2 2 2 2 2 2 2 2 2
5 5 5 5 5 5 5 5 5 5 5 5 5 5 4 4 4 3 3 3 3 3 3 3 3 3 3 3 3 3 2 2 2 2 2 2 2 2 2 2 2 2 2
6 5 5 5 5 5 5 5 5 5 5 5 5 5 4 4 3 3 3 3 3 3 3 3 3 3 3 2 2 3 2 2 2 1 1 1 1 2 2 2 2 2 2
6 5 5 5 5 5 5 5 5 4 4 5 5 5 4 3 3 3 3 3 3 3 3 3 3 3 2 2 1 2 3 2 2 2 1 1 2 3 1 2 1 2 2
7 6 6 5 5 5 5 5 5 5 4 4 4 5 4 4 3 3 3 3 3 3 3 3 3 2 3 4 3 1 2 2 1 1 1 2 3 3 2 1 2 2 2
6 6 5 5 4 4 4 4 5 5 5 4 4 4 4 4 3 3 3 3 3 3 3 2 3 3 3 4 2 1 0 1 1 1 1 1 2 1 1 2 3 2 1
6 5 5 5 4 5 5 4 4 5 5 4 4 4 4 4 3 3 3 2 2 2 2 2 2 2 3 3 2 1 2 1 1 1 1 1 1 1 1 1 1 1 2
5 5 5 5 5 5 5 4 4 5 5 5 4 4 3 3 3 3 3 2 2 2 2 2 2 2 2 3 2 3 3 2 2 2 2 2 2 2 1 3 2 2 2
5 5 5 5 5 5 5 5 4 4 4 4 4 4 3 3 3 3 2 2 2 2 2 2 2 2 2 3 3 3 3 2 2 2 2 2 1 1 1 4 3 3 2
5 6 5 5 4 5 5 4 4 4 3 4 4 4 3 3 3 3 2 2 2 2 1 1 1 1 1 3 4 3 3 2 2 2 2 2 4 1 2 4 3 2 3
6 6 5 5 4 4 4 4 4 3 3 3 4 4 3 3 3 3 3 2 2 3 2 2 2 2 2 1 3 4 4 4 3 2 1 2 4 2 3 4 2 3 5
6 5 5 5 5 4 4 3 3 3 3 3 3 3 3 3 3 3 4 3 3 2 2 2 2 1 1 3 4 6 5 5 4 2 1 0 4 5 5 6 5 5 5
6 6 6 5 4 4 3 3 3 3 4 4 3 3 3 3 3 2 3 3 2 1 1 1 2 1 1 1 1 3 4 5 5 3 3 5 6 5 4 4 5 5 3
5 5 5 5 5 4 4 3 3 3 3 3 3 3 3 3 3 2 0 1 0 1 2 2 2 2 2 2 3 2 2 2 1 3 3 3 4 4 4 3 3 3 4
5 5 4 4 4 4 4 3 3 3 3 3 3 3 3 2 2 2 2 3 1 2 1 2 4 2 2 1 1 1 2 2 2 4 4 3 3 3 3 3 3 3 3
Wind_Direction
156 151 161 160 160 163 165 172 173 163 169 163 174 175 186 190 175 175 172 191 202 201 212 203 178 202 190 183 178 186 180 198 193 194 173 160 157 153 168 190 183 177 188
170 158 163 163 164 165 167 171 175 166 171 168 174 172 181 189 172 166 158 192 198 202 193 188 192 192 181 180 184 195 206 195 200 221 209 185 166 170 169 186 192 195 197
184 175 171 166 164 166 173 176 171 167 169 160 155 142 155 178 161 169 169 185 191 192 185 183 195 193 198 178 186 196 201 200 194 232 261 236 179 158 158 182 186 199 207
190 180 172 170 171 172 170 168 167 166 165 163 165 169 177 176 170 183 170 161 178 184 180 187 188 199 197 178 191 184 196 197 197 179 266 326 15 249 169 168 160 184 199
189 182 177 172 173 168 162 163 163 166 165 168 169 179 179 172 165 168 155 170 170 182 186 186 183 190 195 182 194 184 201 199 206 193 184 169 183 241 250 190 178 184 172
181 175 169 171 171 162 161 161 158 160 161 167 167 171 169 162 153 159 161 176 168 173 183 188 186 190 186 181 190 193 192 200 200 225 218 214 224 217 238 227 212 195 161
176 172 172 174 171 160 159 159 155 157 159 161 160 160 167 171 168 178 182 185 171 172 179 188 187 184 175 173 183 188 195 192 189 202 214 228 261 272 280 261 240 233 190
175 173 174 171 164 158 157 151 153 155 158 158 154 154 167 177 173 184 195 188 182 169 156 170 176 172 167 171 175 179 180 180 183 189 192 220 227 234 255 268 260 245 225
170 173 171 167 160 153 150 147 148 147 152 152 149 150 157 162 146 152 183 174 155 152 157 169 169 165 167 174 172 169 173 170 179 177 177 201 188 226 255 259 260 267 269
163 167 165 161 154 147 143 140 141 143 147 145 151 142 144 148 143 140 133 131 145 148 158 167 164 163 164 165 169 164 161 170 176 179 169 190 202 209 235 243 250 265 276
165 162 163 155 152 150 146 145 139 139 139 140 137 131 137 143 145 140 134 131 134 142 150 152 151 151 153 158 162 170 164 176 181 185 180 191 215 221 237 244 247 251 257
158 155 154 148 148 149 148 145 142 139 138 137 136 134 136 139 141 129 122 126 130 132 137 146 147 149 149 155 162 170 170 183 190 188 192 197 193 198 230 233 241 245 253
148 151 152 151 152 150 150 148 150 143 140 137 137 135 135 133 129 123 127 129 128 126 129 133 134 133 135 150 167 171 177 185 188 195 205 205 203 210 215 226 231 233 234
147 157 162 158 154 151 150 149 145 144 143 139 137 135 135 134 135 134 134 136 131 130 132 134 134 133 135 146 153 151 152 157 159 167 185 208 222 220 221 226 226 226 237
154 164 165 150 147 149 149 144 140 141 143 144 139 136 138 136 137 135 133 137 141 138 135 134 133 133 133 102 106 148 146 153 162 161 169 124 59 34 349 305 267 235 238
165 166 164 157 154 151 150 146 145 142 146 149 144 138 142 140 135 132 130 132 133 130 131 128 122 116 93 71 45 347 134 148 159 158 164 159 157 136 138 59 19 330 268
160 160 159 156 154 151 150 149 146 149 150 147 144 142 147 142 145 148 136 130 137 138 133 134 132 119 99 98 93 351 276 160 155 166 198 230 106 166 181 159 180 203 250
161 158 154 149 142 140 145 148 151 155 152 147 146 147 147 147 150 151 141 133 131 135 140 146 146 148 125 122 139 252 214 199 184 188 183 210 211 71 334 252 210 221 191
150 148 149 146 145 146 144 146 149 154 151 148 147 145 148 150 155 151 142 141 142 150 163 164 166 172 152 141 168 248 212 188 206 211 190 214 207 84 317 248 238 242 214
136 140 143 144 147 147 149 154 152 154 153 149 147 142 143 147 151 142 145 146 167 177 177 159 171 182 175 150 177 239 235 204 206 194 184 150 187 116 254 248 247 247 253
141 144 144 139 139 145 150 152 148 147 146 145 142 141 141 148 147 145 149 166 186 175 186 182 179 188 183 161 176 221 254 247 236 215 201 145 144 162 229 261 261 279 283
148 146 142 136 137 143 152 150 144 141 140 142 145 143 146 159 147 155 168 182 197 191 192 202 217 193 182 179 166 190 233 278 261 263 257 128 148 190 233 243 258 262 261
145 144 142 140 138 145 155 155 143 147 148 148 152 153 155 156 161 174 178 189 202 222 212 214 219 207 180 152 165 186 209 234 252 277 4 186 194 213 220 218 234 239 243
146 148 147 147 149 156 157 149 152 156 156 157 161 164 168 168 166 196 198 205 209 230 247 257 264 253 220 212 170 188 196 204 223 244 199 202 213 227 237 213 215 231 247
149 154 154 158 158 152 143 142 149 158 161 163 176 187 186 168 170 183 216 244 158 354 300 296 280 277 271 31 12 317 277 266 248 249 234 220 211 213 215 217 222 229 228
148 152 158 155 149 143 136 133 145 154 164 174 186 198 197 179 196 181 156 84 68 88 59 322 311 330 43 77 342 300 291 272 251 241 235 231 232 234 233 236 229 227 233